TimeCST,TemperatureF,Dew PointF,Humidity,Sea Level PressureIn,VisibilityMPH,Wind Direction,Wind SpeedMPH,Gust SpeedMPH,PrecipitationIn,Events,Conditions,WindDirDegrees,DateUTC
12:14 AM,2.1,-3.5,77,30.37,7.0,NNW,16.1,20.7,N/A,,Mostly Cloudy,330,2013-12-11 06:14:00
12:35 AM,0.5,-5.3,77,30.38,10.0,NNW,12.7,-,N/A,,Scattered Clouds,330,2013-12-11 06:35:00
12:55 AM,0.3,-4.9,79,30.39,10.0,NNW,10.4,-,N/A,,Scattered Clouds,330,2013-12-11 06:55:00
1:15 AM,-0.6,-5.3,81,30.40,10.0,NW,9.2,-,N/A,,Mostly Cloudy,320,2013-12-11 07:15:00
1:35 AM,-1.7,-7.8,75,30.40,10.0,NW,9.2,-,N/A,,Scattered Clouds,310,2013-12-11 07:35:00
1:54 AM,-4.0,-8.9,80,30.41,10.0,WNW,11.5,-,N/A,,Clear,300,2013-12-11 07:54:00
2:15 AM,-4.9,-10.3,78,30.42,10.0,WNW,10.4,-,N/A,,Clear,300,2013-12-11 08:15:00
2:35 AM,-5.8,-11.2,77,30.43,10.0,WNW,11.5,-,N/A,,Clear,300,2013-12-11 08:35:00
2:54 AM,-5.8,-11.9,75,30.44,10.0,WNW,11.5,-,N/A,,Clear,300,2013-12-11 08:54:00
3:15 AM,-5.8,-12.3,74,30.44,10.0,WNW,10.4,-,N/A,,Clear,300,2013-12-11 09:15:00
3:34 AM,-7.6,-13.5,75,30.45,10.0,West,8.1,-,N/A,,Clear,280,2013-12-11 09:34:00
3:55 AM,-6.9,-13.4,73,30.45,10.0,WNW,10.4,-,N/A,,Clear,290,2013-12-11 09:55:00
4:14 AM,-7.2,-13.0,76,30.45,10.0,WNW,9.2,-,N/A,,Clear,290,2013-12-11 10:14:00
4:35 AM,-7.8,-13.4,77,30.47,10.0,West,5.8,-,N/A,,Clear,270,2013-12-11 10:35:00
4:55 AM,-8.0,-13.5,77,30.47,10.0,West,5.8,-,N/A,,Clear,260,2013-12-11 10:55:00
5:15 AM,-9.4,-14.4,78,30.47,10.0,West,5.8,-,N/A,,Clear,270,2013-12-11 11:15:00
5:35 AM,-9.4,-14.6,78,30.49,10.0,West,5.8,-,N/A,,Clear,260,2013-12-11 11:35:00
5:55 AM,-10.1,-15.3,78,30.50,10.0,West,6.9,-,N/A,,Clear,260,2013-12-11 11:55:00
6:14 AM,-9.4,-14.8,77,30.50,10.0,WSW,6.9,-,N/A,,Clear,250,2013-12-11 12:14:00
6:35 AM,-9.6,-15.0,77,30.50,10.0,West,6.9,-,N/A,,Clear,270,2013-12-11 12:35:00
6:55 AM,-10.3,-15.7,77,30.50,10.0,West,8.1,-,N/A,,Clear,270,2013-12-11 12:55:00
8:00 AM,-11.2,-16.4,78,30.51,10.0,WSW,6.9,-,N/A,,Clear,250,2013-12-11 14:00:00
8:15 AM,-11.0,-16.6,76,30.51,10.0,WSW,6.9,-,N/A,,Clear,240,2013-12-11 14:15:00
8:34 AM,-10.3,-15.9,76,30.52,10.0,WSW,4.6,-,N/A,,Clear,240,2013-12-11 14:34:00
8:55 AM,-9.6,-15.5,75,30.53,10.0,SW,6.9,-,N/A,,Clear,230,2013-12-11 14:55:00
9:14 AM,-8.5,-15.2,73,30.54,10.0,WSW,6.9,-,N/A,,Clear,240,2013-12-11 15:14:00
9:35 AM,-7.2,-14.3,71,30.54,10.0,WSW,9.2,-,N/A,,Clear,250,2013-12-11 15:35:00
9:54 AM,-6.7,-14.1,70,30.55,10.0,WSW,8.1,-,N/A,,Clear,250,2013-12-11 15:54:00
10:15 AM,-5.8,-13.9,68,30.56,10.0,WSW,6.9,-,N/A,,Clear,250,2013-12-11 16:15:00
10:34 AM,-5.3,-13.4,68,30.55,10.0,WSW,9.2,-,N/A,,Clear,250,2013-12-11 16:34:00
10:55 AM,-4.2,-12.5,68,30.54,10.0,West,10.4,-,N/A,,Clear,270,2013-12-11 16:55:00
11:15 AM,-3.3,-12.1,66,30.54,10.0,West,11.5,-,N/A,,Clear,260,2013-12-11 17:15:00
11:34 AM,-2.9,-11.9,65,30.53,10.0,WSW,9.2,-,N/A,,Clear,250,2013-12-11 17:34:00
11:55 AM,-2.4,-11.4,66,30.52,10.0,West,6.9,-,N/A,,Clear,260,2013-12-11 17:55:00
12:15 PM,-1.5,-11.2,63,30.51,10.0,West,9.2,-,N/A,,Clear,270,2013-12-11 18:15:00
12:34 PM,-0.4,-10.3,63,30.51,10.0,West,8.1,-,N/A,,Clear,270,2013-12-11 18:34:00
12:55 PM,-0.4,-10.3,63,30.50,10.0,WSW,9.2,-,N/A,,Clear,250,2013-12-11 18:55:00
1:14 PM,-0.0,-9.8,64,30.48,10.0,West,11.5,-,N/A,,Clear,260,2013-12-11 19:14:00
1:35 PM,0.1,-8.9,66,30.47,10.0,West,8.1,-,N/A,,Clear,270,2013-12-11 19:35:00
1:55 PM,-0.0,-8.9,66,30.46,10.0,WSW,6.9,-,N/A,,Clear,250,2013-12-11 19:55:00
2:15 PM,0.1,-8.9,66,30.45,10.0,WSW,8.1,-,N/A,,Clear,240,2013-12-11 20:15:00
2:35 PM,1.2,-8.1,65,30.45,10.0,SW,8.1,-,N/A,,Clear,230,2013-12-11 20:35:00
2:54 PM,1.9,-7.6,64,30.45,10.0,WSW,11.5,-,N/A,,Clear,250,2013-12-11 20:54:00
3:15 PM,2.3,-6.7,66,30.45,10.0,WSW,9.2,-,N/A,,Clear,250,2013-12-11 21:15:00
3:35 PM,2.1,-6.9,66,30.44,10.0,WSW,5.8,-,N/A,,Clear,240,2013-12-11 21:35:00
3:55 PM,2.1,-6.3,68,30.44,10.0,WSW,5.8,-,N/A,,Clear,240,2013-12-11 21:55:00
4:14 PM,1.6,-6.3,69,30.43,10.0,SW,3.5,-,N/A,,Clear,220,2013-12-11 22:14:00
4:35 PM,1.4,-6.7,69,30.42,10.0,SSE,5.8,-,N/A,,Scattered Clouds,160,2013-12-11 22:35:00
4:55 PM,1.4,-6.3,70,30.41,10.0,South,5.8,-,N/A,,Mostly Cloudy,190,2013-12-11 22:55:00
5:14 PM,1.4,-6.2,71,30.39,10.0,South,5.8,-,N/A,,Overcast,190,2013-12-11 23:14:00
5:35 PM,2.1,-5.4,71,30.37,10.0,SSW,6.9,-,N/A,,Overcast,200,2013-12-11 23:35:00
5:55 PM,2.3,-5.3,71,30.36,10.0,SSW,12.7,17.3,N/A,,Overcast,200,2013-12-11 23:55:00
6:14 PM,2.3,-5.3,71,30.35,10.0,SW,8.1,-,N/A,,Overcast,220,2013-12-12 00:14:00
6:35 PM,3.0,-4.9,70,30.34,10.0,SSW,8.1,-,N/A,,Overcast,210,2013-12-12 00:35:00
6:55 PM,3.4,-4.7,69,30.33,10.0,SSW,5.8,-,N/A,,Overcast,200,2013-12-12 00:55:00
7:15 PM,4.1,-4.2,69,30.32,10.0,SSW,9.2,16.1,N/A,,Overcast,200,2013-12-12 01:15:00
7:34 PM,4.6,-3.6,69,30.31,10.0,South,6.9,-,N/A,,Overcast,180,2013-12-12 01:34:00
7:55 PM,4.6,-3.1,70,30.29,10.0,South,9.2,-,N/A,,Scattered Clouds,190,2013-12-12 01:55:00
8:15 PM,6.8,-1.1,70,30.27,10.0,South,11.5,17.3,N/A,,Clear,180,2013-12-12 02:15:00
8:34 PM,8.1,1.2,74,30.25,10.0,SSW,10.4,21.9,N/A,,Clear,210,2013-12-12 02:34:00
8:55 PM,8.6,0.9,71,30.22,7.0,SSW,21.9,32.2,N/A,,Clear,210,2013-12-12 02:55:00
9:15 PM,9.0,0.9,70,30.22,10.0,SSW,18.4,28.8,N/A,,Clear,210,2013-12-12 03:15:00
9:34 PM,8.8,1.4,72,30.19,10.0,SW,16.1,28.8,N/A,,Clear,220,2013-12-12 03:34:00
9:54 PM,9.3,2.7,74,30.17,10.0,SW,28.8,38.0,N/A,,Scattered Clouds,220,2013-12-12 03:54:00
10:15 PM,10.2,3.6,74,30.15,10.0,SW,31.1,40.3,N/A,,Mostly Cloudy,220,2013-12-12 04:15:00
10:35 PM,11.1,4.6,75,30.16,10.0,SW,28.8,39.1,N/A,,Overcast,230,2013-12-12 04:35:00
10:54 PM,12.2,5.7,75,30.16,10.0,SW,27.6,36.8,N/A,,Overcast,230,2013-12-12 04:54:00
11:15 PM,13.1,6.8,76,30.16,10.0,SW,24.2,36.8,N/A,,Overcast,230,2013-12-12 05:15:00
11:35 PM,14.0,7.5,75,30.16,10.0,SW,25.3,32.2,N/A,,Overcast,230,2013-12-12 05:35:00
11:55 PM,14.7,8.4,76,30.15,10.0,SW,24.2,32.2,N/A,,Overcast,230,2013-12-12 05:55:00